Voltar ao catálogo

METEOR 2-8 DEB

LostPO
NORAD 36332·DEBRIS·🇷🇺 Russia

Lançado Mar 25, 1982 de Plesetsk Cosmodrome

Loading…

Próximas Passagens (próximas 24 horas)

TLE

ObsoletoSource: Space-Track

Época: Dec 26, 2022, 12:39 UTC

1 36332U 82025S   22360.52765082  .00003438  00000-0  20425-2 0  9995
2 36332  82.5260 283.2881 0007799 284.2547  75.7760 14.07213343944601

Acompanhe METEOR 2-8 DEB em tempo real com AllMySat

Download on the App Store